This demonstration page uses our WeatherBlox Daily Observations layout. Learn more.

Left ArrowRight Arrow

44.8408, -93.29828

Hourly Observations for May 15, 2021

Temp ( °F °C ) Dew Point ( °F °C ) Humidity (%) Winds ( mph kmh ) Pressure ( in mb ) Visibility ( mi km ) Precip ( " mm )
12:53 am 00:53 Cloudy 54 12.2 41 5 62 62 SE 8 13 30.09 1019 10 16 0.00 0.00
1:53 am 01:53 Cloudy 53 11.7 42 5.6 66 66 SSE 5 7 30.09 1019 10 16 0.00 0.00
2:53 am 02:53 Cloudy 53 11.7 42 5.6 66 66 SSE 7 11 30.08 1019 10 16 0.00 0.00
3:53 am 03:53 Mostly Cloudy 52 11.1 42 5.6 69 69 SE 3 6 30.08 1019 10 16 0.00 0.00
4:53 am 04:53 Mostly Cloudy 51 10.6 43 6.1 74 74 SE 6 9 30.09 1019 10 16 0.00 0.00
5:53 am 05:53 Partly Cloudy 51 10.6 44 6.7 77 77 SSE 6 9 30.07 1018 10 16 0.00 0.00
6:53 am 06:53 Mostly Cloudy 51 10.6 44 6.7 77 77 SE 3 6 30.08 1019 10 16 0.00 0.00
7:53 am 07:53 Mostly Sunny 54 12.2 46 7.8 75 75 S 6 9 30.08 1019 10 16 0.00 0.00
8:53 am 08:53 Mostly Sunny 57 13.9 48 8.9 72 72 SSE 6 9 30.08 1019 10 16 0.00 0.00
9:53 am 09:53 Partly Cloudy 59 15 48 8.9 67 67 ESE 5 7 30.09 1019 10 16 0.00 0.00
10:53 am 10:53 Mostly Cloudy 64 17.8 49 9.4 58 58 ENE 3 6 30.08 1019 10 16 0.00 0.00
11:53 am 11:53 Partly Cloudy 66 18.9 48 8.9 52 52 VRB 3 6 30.06 1018 10 16 0.00 0.00
12:53 pm 12:53 Partly Cloudy 70 21.1 49 9.4 47 47 ENE 6 9 30.05 1018 10 16 0.00 0.00
1:53 pm 13:53 Mostly Cloudy 69 20.6 46 7.8 44 44 SSW 7 11 30.03 1017 10 16 0.00 0.00
2:53 pm 14:53 Mostly Cloudy 71 21.7 46 7.8 41 41 NW 9 15 30.03 1017 10 16 0.00 0.00
3:53 pm 15:53 Mostly Cloudy 72 22.2 45 7.2 38 38 N 8 13 30.00 1016 10 16 0.00 0.00
4:53 pm 16:53 Mostly Cloudy 75 23.9 43 6.1 32 32 NNW 10 17 29.99 1016 10 16 0.00 0.00
5:53 pm 17:53 Mostly Cloudy 75 23.9 43 6.1 32 32 NNW 12 19 29.98 1015 10 16 0.00 0.00
6:53 pm 18:53 Mostly Cloudy 72 22.2 47 8.3 41 41 ENE 16 26 29.99 1016 10 16 0.00 0.00
7:53 pm 19:53 Partly Cloudy 67 19.4 47 8.3 49 49 E 14 22 30.01 1016 10 16 0.00 0.00
8:53 pm 20:53 Mostly Clear 64 17.8 46 7.8 52 52 ESE 12 19 30.04 1017 10 16 0.00 0.00
9:53 pm 21:53 Mostly Clear 61 16.1 47 8.3 60 60 SE 8 13 30.06 1018 10 16 0.00 0.00
10:53 pm 22:53 Clear 59 15 48 8.9 67 67 SE 5 7 30.07 1018 10 16 0.00 0.00
11:53 pm 23:53 Clear 58 14.4 49 9.4 72 72 SE 6 9 30.08 1019 10 16 0.00 0.00

Powered by AerisWeather